"1999/01/01",  7.7,  8.1,  7.5
"1999/01/02",  7.3,  7.6,  7.1
"1999/01/03",  7.1,  7.3,  6.9
"1999/01/04",  6.9,  7.1,  6.7
"1999/01/05",  6.8,  7.0,  6.6
"1999/01/06",  6.7,  6.9,  6.5
"1999/01/07",  6.8,  7.0,  6.6
"1999/01/08",  6.9,  7.1,  6.8
"1999/01/09",  6.5,  6.9,  6.3
"1999/01/10",  6.1,  6.3,  5.9
"1999/01/11",  6.0,  6.1,  5.8
"1999/01/12",  5.9,  6.1,  5.7
"1999/01/13",  5.9,  6.1,  5.7
"1999/01/14",  5.8,  6.0,  5.6
"1999/01/15",  5.9,  6.0,  5.8
"1999/01/16",  5.9,  6.1,  5.7
"1999/01/17",  6.0,  6.2,  5.9
"1999/01/18",  6.0,  6.3,  5.8
"1999/01/19",  6.2,  6.3,  6.0
"1999/01/20",  6.5,  6.9,  6.3
"1999/01/21",  6.9,  7.0,  6.8
"1999/01/22",  6.6,  7.0,  6.4
"1999/01/23",  6.4,  6.7,  6.2
"1999/01/24",  6.6,  6.7,  6.5
"1999/01/25",  6.7,  6.9,  6.6
"1999/01/26",  7.1,  7.6,  6.9
"1999/01/27",  7.5,  7.6,  7.4
"1999/01/28",  7.4,  7.6,  7.1
"1999/01/29",  7.4,  7.6,  7.3
"1999/01/30",  7.1,  7.5,  6.9
"1999/01/31",  6.7,  7.0,  6.4
"1999/02/01",  6.5,  6.8,  6.3
"1999/02/02",  6.6,  6.8,  6.4
"1999/02/03",  6.5,  6.8,  6.3
"1999/02/04",  6.0,  6.3,  5.7
"1999/02/05",  5.7,  6.0,  5.5
"1999/02/06",  5.6,  5.8,  5.4
"1999/02/07",  5.5,  5.9,  5.3
"1999/02/08",  5.7,  6.1,  5.5
"1999/02/09",  6.0,  6.4,  5.8
"1999/02/10",  6.2,  6.5,  6.0
"1999/02/11",  6.4,  6.5,  6.3
"1999/02/12",  6.3,  6.4,  6.1
"1999/02/13",  6.1,  6.4,  5.9
"1999/02/14",  5.5,  5.9,  5.3
"1999/02/15",  5.4,  5.7,  5.2
"1999/02/16",  5.8,  6.3,  5.5
"1999/02/17",  6.1,  6.5,  5.8
"1999/02/18",  6.5,  7.0,  6.2
"1999/02/19",  7.1,  7.1,  6.9
"1999/02/20",  6.6,  6.9,  6.3
"1999/02/21",  6.5,  6.8,  6.3
"1999/02/22",  6.5,  6.8,  6.2
"1999/02/23",  6.4,  6.7,  6.1
"1999/02/24",  6.5,  6.7,  6.3
"1999/02/25",  6.6,  6.9,  6.5
"1999/02/26",  6.7,  6.9,  6.4
"1999/02/27",  7.2,  7.7,  6.9
"1999/02/28",  7.3,  7.7,  7.0
"1999/03/01",  7.0,  7.4,  6.8
"1999/03/02",  7.3,  7.8,  7.0
"1999/03/03",  7.8,  8.1,  7.6
"1999/03/04",  7.9,  8.3,  7.6
"1999/03/05",  8.2,  8.7,  8.0
"1999/03/06",  8.9,  9.3,  8.6
"1999/03/07",  9.1,  9.3,  8.8
"1999/03/08",  8.5,  8.8,  8.3
"1999/03/09",  8.4,  8.7,  8.0
"1999/03/10",  7.6,  8.0,  7.5
"1999/03/11",  7.4,  7.5,  7.3
"1999/03/12",  7.3,  7.6,  7.0
"1999/03/13",  7.4,  7.8,  7.1
"1999/03/14",  8.0,  8.7,  7.7
"1999/03/15",  8.9,  9.4,  8.7
"1999/03/16",  9.8, 10.1,  9.3
"1999/03/17",  9.7, 10.1,  9.4
"1999/03/18", 10.1, 10.7,  9.9
"1999/03/19", 10.9, 11.3, 10.7
"1999/03/20", 10.9, 11.3, 10.2
"1999/03/21",  9.6, 10.3,  9.2
"1999/03/22",  9.0,  9.3,  8.9
"1999/03/23",  8.5,  8.9,  8.1
"1999/03/24",  9.1,  9.7,  8.8
"1999/03/25",  9.9, 10.1,  9.7
"1999/03/26", 10.4, 10.9, 10.1
"1999/03/27", 11.0, 11.1, 10.8
"1999/03/28", 10.6, 11.0, 10.4
"1999/03/29", 10.3, 10.7, 10.0
"1999/03/30", 10.0, 10.5,  9.8
"1999/03/31",  9.7, 10.0,  9.6
"1999/04/01",  9.8, 10.5,  9.5
"1999/04/02", 10.8, 11.5, 10.4
"1999/04/03", 11.5, 11.8, 11.3
"1999/04/04", 11.4, 11.7, 11.1
"1999/04/05", 11.5, 11.8, 11.3
"1999/04/06", 11.7, 11.8, 11.5
"1999/04/07", 11.5, 11.8, 11.3
"1999/04/08", 11.3, 11.8, 11.0
"1999/04/09", 11.0, 11.4, 10.6
"1999/04/10", 11.3, 11.6, 11.1
"1999/04/11", 11.8, 12.2, 11.5
"1999/04/12", 12.5, 13.1, 12.2
"1999/04/13", 13.3, 13.7, 13.1
"1999/04/14", 13.7, 14.0, 13.5
"1999/04/15", 13.8, 14.1, 13.5
"1999/04/16", 13.9, 14.1, 13.8
"1999/04/17", 13.9, 14.2, 13.6
"1999/04/18", 14.1, 14.2, 13.9
"1999/04/19", 14.0, 14.1, 13.9
"1999/04/20", 14.2, 14.9, 13.9
"1999/04/21", 15.0, 15.3, 14.8
"1999/04/22", 15.2, 15.6, 14.9
"1999/04/23", 15.5, 15.6, 15.4
"1999/04/24", 15.2, 15.4, 15.1
"1999/04/25", 15.0, 15.2, 14.9
"1999/04/26", 15.2, 15.6, 15.1
"1999/04/27", 15.8, 16.4, 15.5
"1999/04/28", 16.4, 16.6, 16.1
"1999/04/29", 16.3, 16.6, 15.9
"1999/04/30", 15.5, 16.0, 15.1
"1999/05/01", 15.4, 15.6, 15.1
"1999/05/02", 15.5, 15.9, 15.3
"1999/05/03", 16.0, 16.3, 15.8
"1999/05/04", 16.2, 16.3, 16.1
"1999/05/05", 16.4, 16.9, 16.2
"1999/05/06", 16.8, 17.0, 16.6
"1999/05/07", 16.8, 17.0, 16.5
"1999/05/08", 17.0, 17.3, 16.8
"1999/05/09", 17.3, 17.6, 17.2
"1999/05/10", 17.6, 17.7, 17.5
"1999/05/11", 17.4, 17.7, 17.2
"1999/05/12", 17.1, 17.3, 16.9
"1999/05/13", 17.3, 17.6, 17.1
"1999/05/14", 17.5, 17.8, 17.3
"1999/05/15", 17.7, 17.8, 17.5
"1999/05/16", 17.3, 17.6, 17.1
"1999/05/17", 17.1, 17.5, 17.0
"1999/05/18", 17.4, 17.5, 17.2
"1999/05/19", 17.4, 17.5, 17.2
"1999/05/20", 17.7, 18.1, 17.4
"1999/05/21", 18.0, 18.5, 17.7
"1999/05/22", 18.4, 18.8, 18.2
"1999/05/23", 18.7, 19.3, 18.4
"1999/05/24", 19.1, 19.3, 18.9
"1999/05/25", 18.9, 19.5, 18.6
"1999/05/26", 19.4, 19.6, 19.2
"1999/05/27", 19.4, 19.5, 19.2
"1999/05/28", 19.3, 19.4, 19.1
"1999/05/29", 18.9, 19.2, 18.8
"1999/05/30", 18.8, 19.4, 18.5
"1999/05/31", 19.3, 19.6, 19.1
"1999/06/01", 19.6, 20.0, 19.3
"1999/06/02", 19.9, 20.4, 19.6
"1999/06/03", 20.4, 20.8, 20.3
"1999/06/04", 20.6, 20.9, 20.5
"1999/06/05", 20.9, 21.4, 20.6
"1999/06/06", 21.3, 21.6, 21.0
"1999/06/07", 21.4, 21.6, 21.2
"1999/06/08", 21.1, 21.5, 20.8
"1999/06/09", 21.3, 21.6, 21.1
"1999/06/10", 21.4, 21.6, 21.2
"1999/06/11", 21.3, 21.6, 21.2
"1999/06/12", 21.1, 21.5, 20.8
"1999/06/13", 21.4, 21.7, 21.2
"1999/06/14", 21.7, 22.1, 21.4
"1999/06/15", 22.1, 22.4, 21.9
"1999/06/16", 22.3, 22.7, 22.1
"1999/06/17", 22.5, 22.7, 22.3
"1999/06/18", 21.7, 22.3, 21.1
"1999/06/19", 20.5, 21.1, 20.2
"1999/06/20", 19.8, 20.2, 19.6
"1999/06/21", 19.7, 20.4, 19.4
"1999/06/22", 20.5, 20.7, 20.3
"1999/06/23", 20.8, 21.3, 20.6
"1999/06/24", 21.4, 21.6, 21.3
"1999/06/25", 21.6, 21.7, 21.5
"1999/06/26", 21.4, 21.8, 21.2
"1999/06/27", 21.8, 21.9, 21.7
"1999/06/28", 21.7, 21.9, 21.6
"1999/06/29", 21.4, 21.6, 21.2
"1999/06/30", 21.3, 21.5, 21.2
"1999/07/01", 21.4, 21.7, 21.3
"1999/07/02", 21.8, 22.2, 21.5
"1999/07/03", 22.2, 22.4, 22.1
"1999/07/04", 22.5, 22.9, 22.4
"1999/07/05", 22.6, 22.9, 22.3
"1999/07/06", 22.0, 22.3, 21.9
"1999/07/07", 21.7, 22.0, 21.5
"1999/07/08", 21.8, 22.0, 21.6
"1999/07/09", 21.6, 21.9, 21.5
"1999/07/10", 21.2, 21.5, 21.1
"1999/07/11", 21.1, 21.4, 21.0
"1999/07/12", 21.6, 22.0, 21.4
"1999/07/13", 22.1, 22.4, 22.0
"1999/07/14", 22.7, 23.3, 22.4
"1999/07/15", 23.4, 23.7, 23.2
"1999/07/16", 23.7, 24.1, 23.5
"1999/07/17", 24.1, 24.3, 24.0
"1999/07/18", 24.3, 24.4, 24.2
"1999/07/19", 24.1, 24.4, 24.0
"1999/07/20", 24.0, 24.1, 23.9
"1999/07/21", 24.1, 24.4, 24.0
"1999/07/22", 24.4, 24.7, 24.3
"1999/07/23", 24.7, 25.0, 24.6
"1999/07/24", 24.9, 25.1, 24.8
"1999/07/25", 25.0, 25.2, 24.9
"1999/07/26", 25.1, 25.3, 25.0
"1999/07/27", 25.2, 25.5, 25.1
"1999/07/28", 25.4, 25.5, 25.3
"1999/07/29", 25.4, 25.5, 25.2
"1999/07/30", 25.4, 25.5, 25.3
"1999/07/31", 25.4, 25.5, 25.3
"1999/08/01", 25.4, 25.6, 25.3
"1999/08/02", 25.6, 25.7, 25.4
"1999/08/03", 25.6, 25.8, 25.4
"1999/08/04", 25.7, 25.9, 25.6
"1999/08/05", 25.9, 26.0, 25.7
"1999/08/06", 25.9, 26.1, 25.8
"1999/08/07", 26.0, 26.2, 25.9
"1999/08/08", 26.0, 26.3, 25.9
"1999/08/09", 26.2, 26.4, 26.0
"1999/08/10", 26.2, 26.4, 26.1
"1999/08/11", 26.1, 26.3, 26.0
"1999/08/12", 26.1, 26.4, 26.0
"1999/08/13", 26.2, 26.4, 26.1
"1999/08/14", 26.2, 26.4, 26.1
"1999/08/15", 26.1, 26.4, 25.9
"1999/08/16", 26.3, 26.5, 26.2
"1999/08/17", 26.4, 26.5, 26.2
"1999/08/18", 26.4, 26.6, 26.3
"1999/08/19", 26.5, 26.6, 26.3
"1999/08/20", 26.3, 26.5, 26.2
"1999/08/21", 26.1, 26.3, 25.9
"1999/08/22", 26.0, 26.2, 25.9
"1999/08/23", 26.1, 26.3, 26.0
"1999/08/24", 26.2, 26.3, 26.1
"1999/08/25", 26.1, 26.3, 25.9
"1999/08/26", 25.8, 26.0, 25.6
"1999/08/27", 25.6, 25.8, 25.5
"1999/08/28", 25.6, 25.8, 25.4
"1999/08/29", 25.8, 26.4, 25.5
"1999/08/30", 26.3, 26.6, 26.0
"1999/08/31", 26.4, 26.7, 26.1
"1999/09/01", 26.5, 26.8, 26.3
"1999/09/02", 26.5, 26.8, 26.3
"1999/09/03", 26.3, 26.6, 26.0
"1999/09/04", 25.9, 26.2, 25.7
"1999/09/05", 25.6, 25.9, 25.2
"1999/09/06", 25.6, 25.9, 25.3
"1999/09/07", 25.4, 25.6, 25.3
"1999/09/08", 25.6, 26.0, 25.4
"1999/09/09", 26.0, 26.4, 25.7
"1999/09/10", 26.3, 26.5, 26.0
"1999/09/11", 26.3, 26.5, 26.1
"1999/09/12", 26.4, 26.8, 26.1
"1999/09/13", 26.6, 26.9, 26.4
"1999/09/14"," * "," * "," * "
"1999/09/15", 26.6, 26.9, 26.5
"1999/09/16", 26.1, 26.6, 25.8
"1999/09/17", 25.2, 25.8, 24.8
"1999/09/18", 24.6, 24.8, 24.4
"1999/09/19", 24.6, 25.0, 24.3
"1999/09/20", 25.0, 25.4, 24.7
"1999/09/21", 25.2, 25.4, 24.8
"1999/09/22", 24.2, 24.8, 23.7
"1999/09/23", 23.5, 23.8, 23.2
"1999/09/24", 23.6, 23.9, 23.3
"1999/09/25", 24.3, 25.0, 23.9
"1999/09/26", 24.9, 25.0, 24.7
"1999/09/27", 24.6, 25.0, 24.3
"1999/09/28", 24.4, 24.7, 24.1
"1999/09/29", 24.2, 24.6, 24.0
"1999/09/30", 24.1, 24.5, 23.8
"1999/10/01", 24.2, 24.5, 24.0
"1999/10/02", 23.9, 24.2, 23.7
"1999/10/03", 24.1, 24.2, 23.8
"1999/10/04", 23.3, 23.9, 23.0
"1999/10/05", 22.6, 23.1, 22.3
"1999/10/06", 22.2, 22.5, 22.0
"1999/10/07", 22.3, 22.5, 22.2
"1999/10/08", 22.3, 22.4, 22.3
"1999/10/09", 22.0, 22.3, 21.8
"1999/10/10", 21.4, 21.8, 21.1
"1999/10/11", 21.2, 21.4, 20.9
"1999/10/12", 21.4, 21.7, 21.1
"1999/10/13", 21.8, 22.2, 21.7
"1999/10/14", 22.3, 22.5, 22.1
"1999/10/15", 21.8, 22.4, 21.2
"1999/10/16", 20.9, 21.2, 20.8
"1999/10/17", 20.4, 20.9, 20.0
"1999/10/18", 19.7, 20.1, 19.4
"1999/10/19"," * "," * "," * "
"1999/10/20", 18.5, 18.8, 18.3
"1999/10/21", 18.3, 18.6, 18.1
"1999/10/22", 18.3, 18.6, 18.1
"1999/10/23", 18.5, 18.8, 18.3
"1999/10/24", 18.4, 18.8, 18.1
"1999/10/25", 17.9, 18.3, 17.7
"1999/10/26", 17.7, 17.9, 17.5
"1999/10/27", 17.9, 17.9, 17.8
"1999/10/28", 18.0, 18.1, 17.9
"1999/10/29", 17.9, 18.1, 17.7
"1999/10/30", 18.0, 18.2, 17.8
"1999/10/31", 18.1, 18.2, 17.9
"1999/11/01", 17.8, 18.1, 17.7
"1999/11/02", 17.9, 18.1, 17.7
"1999/11/03", 17.3, 17.7, 17.2
"1999/11/04", 17.0, 17.3, 16.7
"1999/11/05", 16.4, 16.8, 16.1
"1999/11/06", 16.0, 16.3, 15.7
"1999/11/07", 16.0, 16.2, 15.9
"1999/11/08", 16.2, 16.5, 16.1
"1999/11/09", 16.5, 16.6, 16.4
"1999/11/10", 16.2, 16.6, 16.0
"1999/11/11", 15.6, 16.0, 15.4
"1999/11/12", 15.6, 15.7, 15.6
"1999/11/13", 15.8, 16.0, 15.6
"1999/11/14", 15.8, 16.0, 15.6
"1999/11/15", 15.7, 15.8, 15.6
"1999/11/16", 15.7, 15.8, 15.5
"1999/11/17", 14.8, 15.5, 14.5
"1999/11/18", 14.2, 14.5, 14.1
"1999/11/19", 14.0, 14.2, 13.8
"1999/11/20", 14.0, 14.1, 13.8
"1999/11/21", 13.9, 14.1, 13.7
"1999/11/22", 13.8, 14.0, 13.6
"1999/11/23", 13.7, 13.9, 13.6
"1999/11/24", 13.6, 13.7, 13.5
"1999/11/25", 13.6, 13.9, 13.5
"1999/11/26", 13.7, 13.9, 13.6
"1999/11/27", 13.5, 13.8, 13.4
"1999/11/28", 13.2, 13.4, 13.1
"1999/11/29", 12.7, 13.1, 12.5
"1999/11/30", 12.3, 12.5, 12.2
"1999/12/01", 12.2, 12.4, 12.1
"1999/12/02", 12.2, 12.3, 12.2
"1999/12/03", 11.8, 12.2, 11.6
"1999/12/04", 11.2, 11.6, 10.9
"1999/12/05", 10.8, 11.0, 10.6
"1999/12/06", 11.2, 11.5, 11.0
"1999/12/07", 11.3, 11.5, 11.1
"1999/12/08", 10.6, 11.1, 10.4
"1999/12/09", 10.5, 10.7, 10.3
"1999/12/10", 10.6, 10.8, 10.5
"1999/12/11", 10.5, 10.7, 10.3
"1999/12/12", 10.4, 10.6, 10.3
"1999/12/13", 10.1, 10.4,  9.9
"1999/12/14",  9.9, 10.1,  9.7
"1999/12/15",  9.6,  9.8,  9.5
"1999/12/16",  9.5,  9.7,  9.3
"1999/12/17",  9.3,  9.5,  9.1
"1999/12/18",  9.5,  9.6,  9.4
"1999/12/19",  9.4,  9.6,  9.3
"1999/12/20",  9.1,  9.4,  8.9
"1999/12/21",  8.7,  9.0,  8.5
"1999/12/22",  8.3,  8.7,  8.1
"1999/12/23",  8.0,  8.3,  7.8
"1999/12/24",  7.8,  8.0,  7.6
"1999/12/25",  7.7,  7.9,  7.5
"1999/12/26",  7.7,  7.8,  7.5
"1999/12/27",  7.6,  7.8,  7.3
"1999/12/28",  7.3,  7.5,  7.1
"1999/12/29",  7.3,  7.5,  7.1
"1999/12/30",  7.6,  7.9,  7.5
"1999/12/31",  8.1,  8.3,  7.9
